Weather Roundup
Issued by NWS Chicago, IL

Home | Current Version | Previous Version | Text Only | Print | Product List | Glossary On
Versions: 1 2 3 4 5 6 7 8 9 10 11 12 13 14 15 16 17 18 19 20 21 22 23 24 25 26 27 28 29 30 31 32 33 34 35 36 37 38 39 40 41 42 43 44 45 46 47 48 49 50
000
NZUS59 KLOT 282213
HRRLOT

CHICAGO AREA WEATHER ROUNDUP
NATIONAL WEATHER SERVICE CHICAGO/ROMEOVILLE IL
500 PM CDT WED SEP 28 2016

NOTE: "FAIR" INDICATES FEW OR NO CLOUDS BELOW 12,000 FEET WITH NO
SIGNIFICANT WEATHER AND/OR OBSTRUCTIONS TO VISIBILITY.

* THESE STATIONS ARE NOT UNDER NWS QUALITY CONTROL. THEY ALSO MAY NOT
  REPORT WEATHER SUCH AS PRECIPITATION OR FOG.

ILZ005-006-012>014-019>023-282300-
NORTHEAST ILLINOIS

CITY           SKY/WX    TMP DP  RH WIND       PRES   REMARKS
OHARE          CLOUDY    59  47  64 N17G25    30.00R
MIDWAY         CLOUDY    58  50  75 N14       29.99R
AURORA         CLOUDY    63  47  55 N15       30.02R
LANSING*       CLOUDY    56  54  92 NW10      29.98R
JOLIET*        RAIN      56  54  92 N6        30.02R
WAUKEGAN       CLOUDY    60  49  66 N9G20     30.02R
DUPAGE AIRPORT LGT RAIN  59  47  64 N15       30.01R
WHEELING       CLOUDY    59  46  62 N12G25    30.03R
KANKAKEE*      CLOUDY    55  52  89 NW8       29.99S
MORRIS*        LGT RAIN  60  49  66 CALM      30.01R
LEWIS AIRPORT* LGT RAIN  54  54 100 CALM      30.02R
NORTHERLY ISL    N/A     61  52  72 N13         N/A
$$

WIZ051-052-058>065-066-070>072-282300-
SOUTHEAST WISCONSIN

CITY           SKY/WX    TMP DP  RH WIND       PRES   REMARKS
MILWAUKEE      CLOUDY    60  50  69 N13G24    30.07R
KENOSHA*       CLOUDY    60  51  72 N14G29    30.05R
RACINE*        CLOUDY    58  50  75 N17G28    30.07R
BURLINGTON     CLOUDY    59  46  63 N10       30.06R
WAUKESHA       PTSUNNY   59  48  67 NE8       30.08R
WEST BEND      SUNNY     61  45  55 NE14      30.09R
$$

INZ001>003-010>013-019-020-282300-
NORTHWEST INDIANA

CITY           SKY/WX    TMP DP  RH WIND       PRES   REMARKS
GARY*          CLOUDY    63  54  72 N10       29.98R
MICHIGAN CITY* NOT AVBL
RENSSELAER*    NOT AVBL
VALPARAISO     CLOUDY    59  49  69 N5        29.97R
$$

LMZ740>746-282300-
SOUTHERN LAKE MICHIGAN

STATION/POSITION TIME  SKY/WX   TEMP WIND        PRES    VSBY
                                AIR  DIR/SP/G
                 (UTC)          (F)  (DEG/KT/KT) (MB)    (MI)
HARRISON CRIB    2140            63   30/ 20/ 22   N/A
BURNHAM HARBOR   2200            62  350/  8/ 16   N/A
CALUMET HARBOR   2148            61   10/  9/ 12 1014.7R
BURNS HARBOR     2140            61   40/ 11/ 14 1014.9R
MICHIGAN CITY    2140            59   10/  9/ 10   N/A
$$

ABBREVIATIONS USED IN REMARKS
   TC - TEMPERATURE IN CELSIUS
  WCI - WIND CHILL INDEX
   HX - HEAT INDEX
  VSB - VISIBILITY
$$



USA.gov is the U.S. government's official web portal to all federal, state and local government web resources and services.